"Datum/tijd (MEZT)";"verwachting, vectrale stroom km/u"
2024-05-01 13:00;-0.396
2024-05-01 13:10;-0.036
2024-05-01 13:20;0.288
2024-05-01 13:30;0.576
2024-05-01 13:40;0.864
2024-05-01 13:50;1.08
2024-05-01 14:00;1.332
2024-05-01 14:10;1.584
2024-05-01 14:20;1.836
2024-05-01 14:30;2.088
2024-05-01 14:40;2.268
2024-05-01 14:50;2.448
2024-05-01 15:00;2.52
2024-05-01 15:10;2.628
2024-05-01 15:20;2.772
2024-05-01 15:30;2.844
2024-05-01 15:40;2.916
2024-05-01 15:50;2.988
2024-05-01 16:00;3.024
2024-05-01 16:10;3.06
2024-05-01 16:20;3.06
2024-05-01 16:30;3.096
2024-05-01 16:40;3.096
2024-05-01 16:50;3.096
2024-05-01 17:00;3.096
2024-05-01 17:10;3.06
2024-05-01 17:20;3.06
2024-05-01 17:30;3.024
2024-05-01 17:40;3.024
2024-05-01 17:50;2.988
2024-05-01 18:00;2.988
2024-05-01 18:10;2.952
2024-05-01 18:20;2.952
2024-05-01 18:30;2.916
2024-05-01 18:40;2.88
2024-05-01 18:50;2.844
2024-05-01 19:00;2.808
2024-05-01 19:10;2.736
2024-05-01 19:20;2.7
2024-05-01 19:30;2.592
2024-05-01 19:40;2.52
2024-05-01 19:50;2.376
2024-05-01 20:00;2.232
2024-05-01 20:10;2.052
2024-05-01 20:20;1.8
2024-05-01 20:30;1.512
2024-05-01 20:40;1.188
2024-05-01 20:50;0.828
2024-05-01 21:00;0.468
2024-05-01 21:10;0.144
2024-05-01 21:20;-0.216
2024-05-01 21:30;-0.576
2024-05-01 21:40;-0.936
2024-05-01 21:50;-1.296
2024-05-01 22:00;-1.62
2024-05-01 22:10;-1.908
2024-05-01 22:20;-2.124
2024-05-01 22:30;-2.304
2024-05-01 22:40;-2.376
2024-05-01 22:50;-2.448
2024-05-01 23:00;-2.484
2024-05-01 23:10;-2.448
2024-05-01 23:20;-2.376
2024-05-01 23:30;-2.268
2024-05-01 23:40;-2.124
2024-05-01 23:50;-1.98
2024-05-02 00:00;-1.836
2024-05-02 00:10;-1.62
2024-05-02 00:20;-1.44
2024-05-02 00:30;-1.224
2024-05-02 00:40;-0.972
2024-05-02 00:50;-0.648
2024-05-02 01:00;-0.324
2024-05-02 01:10;0.036
2024-05-02 01:20;0.324
2024-05-02 01:30;0.612
2024-05-02 01:40;0.864
2024-05-02 01:50;1.08
2024-05-02 02:00;1.296
2024-05-02 02:10;1.548
2024-05-02 02:20;1.8
2024-05-02 02:30;2.016
2024-05-02 02:40;2.232
2024-05-02 02:50;2.448
2024-05-02 03:00;2.592
2024-05-02 03:10;2.736
2024-05-02 03:20;2.88
2024-05-02 03:30;2.988
2024-05-02 03:40;3.06
2024-05-02 03:50;3.132
2024-05-02 04:00;3.204
2024-05-02 04:10;3.276
2024-05-02 04:20;3.312
2024-05-02 04:30;3.312
2024-05-02 04:40;3.348
2024-05-02 04:50;3.348
2024-05-02 05:00;3.312
2024-05-02 05:10;3.312
2024-05-02 05:20;3.312
2024-05-02 05:30;3.276
2024-05-02 05:40;3.24
2024-05-02 05:50;3.204
2024-05-02 06:00;3.168
2024-05-02 06:10;3.168
2024-05-02 06:20;3.132
2024-05-02 06:30;3.096
2024-05-02 06:40;3.06
2024-05-02 06:50;2.988
2024-05-02 07:00;2.952
2024-05-02 07:10;2.916
2024-05-02 07:20;2.844
2024-05-02 07:30;2.772
2024-05-02 07:40;2.664
2024-05-02 07:50;2.556
2024-05-02 08:00;2.376
2024-05-02 08:10;2.196
2024-05-02 08:20;1.944
2024-05-02 08:30;1.62
2024-05-02 08:40;1.224
2024-05-02 08:50;0.828
2024-05-02 09:00;0.468
2024-05-02 09:10;0.072
2024-05-02 09:20;-0.324
2024-05-02 09:30;-0.756
2024-05-02 09:40;-1.188
2024-05-02 09:50;-1.62
2024-05-02 10:00;-2.052
2024-05-02 10:10;-2.412
2024-05-02 10:20;-2.736
2024-05-02 10:30;-2.952
2024-05-02 10:40;-3.132
2024-05-02 10:50;-3.24
2024-05-02 11:00;-3.276
2024-05-02 11:10;-3.312
2024-05-02 11:20;-3.276
2024-05-02 11:30;-3.24
2024-05-02 11:40;-3.168
2024-05-02 11:50;-3.132
2024-05-02 12:00;-3.06
2024-05-02 12:10;-2.952
2024-05-02 12:20;-2.88
2024-05-02 12:30;-2.808
2024-05-02 12:40;-2.736
2024-05-02 12:50;-2.628
2024-05-02 13:00;-2.52
2024-05-02 13:10;-2.412
2024-05-02 13:20;-2.232
2024-05-02 13:30;-2.016
2024-05-02 13:40;-1.8
2024-05-02 13:50;-1.548
2024-05-02 14:00;-1.332
2024-05-02 14:10;-1.008
2024-05-02 14:20;-0.684
2024-05-02 14:30;-0.324
2024-05-02 14:40;0.036
2024-05-02 14:50;0.36
2024-05-02 15:00;0.684
2024-05-02 15:10;0.936
2024-05-02 15:20;1.224
2024-05-02 15:30;1.476
2024-05-02 15:40;1.764
2024-05-02 15:50;2.016
2024-05-02 16:00;2.268
2024-05-02 16:10;2.484
2024-05-02 16:20;2.664
2024-05-02 16:30;2.808
2024-05-02 16:40;2.916
2024-05-02 16:50;3.024
2024-05-02 17:00;3.096
2024-05-02 17:10;3.168
2024-05-02 17:20;3.204
2024-05-02 17:30;3.24
2024-05-02 17:40;3.276
2024-05-02 17:50;3.312
2024-05-02 18:00;3.312
2024-05-02 18:10;3.312
2024-05-02 18:20;3.276
2024-05-02 18:30;3.276
2024-05-02 18:40;3.276
2024-05-02 18:50;3.24
2024-05-02 19:00;3.24
2024-05-02 19:10;3.24
2024-05-02 19:20;3.204
2024-05-02 19:30;3.204
2024-05-02 19:40;3.204
2024-05-02 19:50;3.168
2024-05-02 20:00;3.096
2024-05-02 20:10;3.096
2024-05-02 20:20;3.06
2024-05-02 20:30;2.988
2024-05-02 20:40;2.952
2024-05-02 20:50;2.88
2024-05-02 21:00;2.772
2024-05-02 21:10;2.7
2024-05-02 21:20;2.556
2024-05-02 21:30;2.412
2024-05-02 21:40;2.232
2024-05-02 21:50;2.016
2024-05-02 22:00;1.764
2024-05-02 22:10;1.44
2024-05-02 22:20;1.116
2024-05-02 22:30;0.756
2024-05-02 22:40;0.432
2024-05-02 22:50;0.108
2024-05-02 23:00;-0.216
2024-05-02 23:10;-0.54
2024-05-02 23:20;-0.864
2024-05-02 23:30;-1.188
2024-05-02 23:40;-1.476
2024-05-02 23:50;-1.728
2024-05-03 00:00;-1.908
2024-05-03 00:10;-2.016
2024-05-03 00:20;-2.088
2024-05-03 00:30;-2.088
2024-05-03 00:40;-2.052
2024-05-03 00:50;-1.98
2024-05-03 01:00;-1.764
2024-05-03 01:10;-1.584
2024-05-03 01:20;-1.368
2024-05-03 01:30;-1.116
2024-05-03 01:40;-0.864
2024-05-03 01:50;-0.576
2024-05-03 02:00;-0.288
2024-05-03 02:10;0
2024-05-03 02:20;0.288
2024-05-03 02:30;0.54
2024-05-03 02:40;0.792
2024-05-03 02:50;1.008
2024-05-03 03:00;1.224
2024-05-03 03:10;1.476
2024-05-03 03:20;1.692
2024-05-03 03:30;1.908
2024-05-03 03:40;2.124
2024-05-03 03:50;2.304
2024-05-03 04:00;2.448
2024-05-03 04:10;2.592
2024-05-03 04:20;2.736
2024-05-03 04:30;2.844
2024-05-03 04:40;2.952
2024-05-03 04:50;3.024
2024-05-03 05:00;3.096
2024-05-03 05:10;3.168
2024-05-03 05:20;3.24
2024-05-03 05:30;3.276
2024-05-03 05:40;3.312
2024-05-03 05:50;3.312
2024-05-03 06:00;3.348
2024-05-03 06:10;3.348
2024-05-03 06:20;3.348
2024-05-03 06:30;3.348
2024-05-03 06:40;3.312
2024-05-03 06:50;3.312
2024-05-03 07:00;3.276
2024-05-03 07:10;3.276
2024-05-03 07:20;3.24
2024-05-03 07:30;3.24
2024-05-03 07:40;3.204
2024-05-03 07:50;3.204
2024-05-03 08:00;3.168
2024-05-03 08:10;3.168
2024-05-03 08:20;3.132
2024-05-03 08:30;3.096
2024-05-03 08:40;3.06
2024-05-03 08:50;3.024
2024-05-03 09:00;2.844
2024-05-03 09:10;2.772
2024-05-03 09:20;2.664
2024-05-03 09:30;2.556
2024-05-03 09:40;2.34
2024-05-03 09:50;2.088
2024-05-03 10:00;1.764
2024-05-03 10:10;1.332
2024-05-03 10:20;0.9
2024-05-03 10:30;0.468
2024-05-03 10:40;0.072
2024-05-03 10:50;-0.36
2024-05-03 11:00;-0.792
2024-05-03 11:10;-1.224
2024-05-03 11:20;-1.692
2024-05-03 11:30;-2.124
2024-05-03 11:40;-2.484
2024-05-03 11:50;-2.772
2024-05-03 12:00;-2.988
2024-05-03 12:10;-3.132
2024-05-03 12:20;-3.24
2024-05-03 12:30;-3.276
2024-05-03 12:40;-3.276
2024-05-03 12:50;-3.24
2024-05-03 13:00;-3.168
2024-05-03 13:10;-3.096
2024-05-03 13:20;-3.024
2024-05-03 13:30;-2.952
2024-05-03 13:40;-2.844
2024-05-03 13:50;-2.772
2024-05-03 14:00;-2.664
2024-05-03 14:10;-2.592
2024-05-03 14:20;-2.484
2024-05-03 14:30;-2.34
2024-05-03 14:40;-2.16
2024-05-03 14:50;-1.944
2024-05-03 15:00;-1.692
2024-05-03 15:10;-1.44
2024-05-03 15:20;-1.116
2024-05-03 15:30;-0.756
2024-05-03 15:40;-0.396
2024-05-03 15:50;-0.036
2024-05-03 16:00;0.288
2024-05-03 16:10;0.576
2024-05-03 16:20;0.864
2024-05-03 16:30;1.116
2024-05-03 16:40;1.368
2024-05-03 16:50;1.656
2024-05-03 17:00;1.908
2024-05-03 17:10;2.16
2024-05-03 17:20;2.376
2024-05-03 17:30;2.52
2024-05-03 17:40;2.7
2024-05-03 17:50;2.808
2024-05-03 18:00;2.916
2024-05-03 18:10;3.024
2024-05-03 18:20;3.096
2024-05-03 18:30;3.168
2024-05-03 18:40;3.204
2024-05-03 18:50;3.24
2024-05-03 19:00;3.276
2024-05-03 19:10;3.312
2024-05-03 19:20;3.348
2024-05-03 19:30;3.348
2024-05-03 19:40;3.348
2024-05-03 19:50;3.384
2024-05-03 20:00;3.384
2024-05-03 20:10;3.384
2024-05-03 20:20;3.42
2024-05-03 20:30;3.42
2024-05-03 20:40;3.42
2024-05-03 20:50;3.42
2024-05-03 21:00;3.42
2024-05-03 21:10;3.42
2024-05-03 21:20;3.42
2024-05-03 21:30;3.384
2024-05-03 21:40;3.348
2024-05-03 21:50;3.348
2024-05-03 22:00;3.312
2024-05-03 22:10;3.24
2024-05-03 22:20;3.204
2024-05-03 22:30;3.132
2024-05-03 22:40;3.06
2024-05-03 22:50;2.952
2024-05-03 23:00;2.844
2024-05-03 23:10;2.664
2024-05-03 23:20;2.484
2024-05-03 23:30;2.196
2024-05-03 23:40;1.872
2024-05-03 23:50;1.512
2024-05-04 00:00;1.152
2024-05-04 00:10;0.792
2024-05-04 00:20;0.468
2024-05-04 00:30;0.18
2024-05-04 00:40;-0.108
2024-05-04 00:50;-0.432
2024-05-04 01:00;-0.72
2024-05-04 01:10;-0.972
2024-05-04 01:20;-1.224
2024-05-04 01:30;-1.368
2024-05-04 01:40;-1.476
2024-05-04 01:50;-1.512
2024-05-04 02:00;-1.44
2024-05-04 02:10;-1.332
2024-05-04 02:20;-1.188
2024-05-04 02:30;-0.972
2024-05-04 02:40;-0.756
2024-05-04 02:50;-0.468
2024-05-04 03:00;-0.18
2024-05-04 03:10;0.108
2024-05-04 03:20;0.396
2024-05-04 03:30;0.648
2024-05-04 03:40;0.864
2024-05-04 03:50;1.08
2024-05-04 04:00;1.332
2024-05-04 04:10;1.548
2024-05-04 04:20;1.8
2024-05-04 04:30;2.052
2024-05-04 04:40;2.268
2024-05-04 04:50;2.484
2024-05-04 05:00;2.664
2024-05-04 05:10;2.808
2024-05-04 05:20;2.952
2024-05-04 05:30;3.06
2024-05-04 05:40;3.168
2024-05-04 05:50;3.276
2024-05-04 06:00;3.348
2024-05-04 06:10;3.42
2024-05-04 06:20;3.492
2024-05-04 06:30;3.528
2024-05-04 06:40;3.564
2024-05-04 06:50;3.6
2024-05-04 07:00;3.636
2024-05-04 07:10;3.636
2024-05-04 07:20;3.636
2024-05-04 07:30;3.636
2024-05-04 07:40;3.636
2024-05-04 07:50;3.6
2024-05-04 08:00;3.6
2024-05-04 08:10;3.6
2024-05-04 08:20;3.564
2024-05-04 08:30;3.564
2024-05-04 08:40;3.564
2024-05-04 08:50;3.564
2024-05-04 09:00;3.528
2024-05-04 09:10;3.528
2024-05-04 09:20;3.528
2024-05-04 09:30;3.492
2024-05-04 09:40;3.492
2024-05-04 09:50;3.456
2024-05-04 10:00;3.456
2024-05-04 10:10;3.42
2024-05-04 10:20;3.348
2024-05-04 10:30;3.312
2024-05-04 10:40;3.204
2024-05-04 10:50;3.132
2024-05-04 11:00;2.988
2024-05-04 11:10;2.808
2024-05-04 11:20;2.592
2024-05-04 11:30;2.304
2024-05-04 11:40;1.908
2024-05-04 11:50;1.476
2024-05-04 12:00;1.044
2024-05-04 12:10;0.612
2024-05-04 12:20;0.216
2024-05-04 12:30;-0.216
2024-05-04 12:40;-0.648
2024-05-04 12:50;-1.08
2024-05-04 13:00;-1.548
2024-05-04 13:10;-2.016
2024-05-04 13:20;-2.376
2024-05-04 13:30;-2.664
2024-05-04 13:40;-2.88
2024-05-04 13:50;-3.024
2024-05-04 14:00;-3.06
2024-05-04 14:10;-3.096
2024-05-04 14:20;-3.06
2024-05-04 14:30;-3.024
2024-05-04 14:40;-2.952
2024-05-04 14:50;-2.88
2024-05-04 15:00;-2.772
2024-05-04 15:10;-2.628
2024-05-04 15:20;-2.52
2024-05-04 15:30;-2.376
2024-05-04 15:40;-2.232
2024-05-04 15:50;-2.052
2024-05-04 16:00;-1.872
2024-05-04 16:10;-1.656
2024-05-04 16:20;-1.404
2024-05-04 16:30;-1.152
2024-05-04 16:40;-0.792
2024-05-04 16:50;-0.432
2024-05-04 17:00;-0.108
2024-05-04 17:10;0.216
2024-05-04 17:20;0.504
2024-05-04 17:30;0.792
2024-05-04 17:40;1.044
2024-05-04 17:50;1.296
2024-05-04 18:00;1.548
2024-05-04 18:10;1.836
2024-05-04 18:20;2.088
2024-05-04 18:30;2.304
2024-05-04 18:40;2.52
2024-05-04 18:50;2.664
2024-05-04 19:00;2.808
2024-05-04 19:10;2.916
2024-05-04 19:20;3.024
2024-05-04 19:30;3.096
2024-05-04 19:40;3.168
2024-05-04 19:50;3.204
2024-05-04 20:00;3.24
2024-05-04 20:10;3.24
2024-05-04 20:20;3.276
2024-05-04 20:30;3.276
2024-05-04 20:40;3.276
2024-05-04 20:50;3.276
2024-05-04 21:00;3.276
2024-05-04 21:10;3.276
2024-05-04 21:20;3.276
2024-05-04 21:30;3.276
2024-05-04 21:40;3.276
2024-05-04 21:50;3.24
2024-05-04 22:00;3.24
2024-05-04 22:10;3.24
2024-05-04 22:20;3.24
2024-05-04 22:30;3.204
2024-05-04 22:40;3.204
2024-05-04 22:50;3.168
2024-05-04 23:00;3.132
2024-05-04 23:10;3.096
2024-05-04 23:20;3.06
2024-05-04 23:30;3.024
2024-05-04 23:40;2.952
2024-05-04 23:50;2.88
2024-05-05 00:00;2.772
2024-05-05 00:10;2.664
2024-05-05 00:20;2.52
2024-05-05 00:30;2.304
2024-05-05 00:40;2.016
2024-05-05 00:50;1.656
2024-05-05 01:00;1.224
2024-05-05 01:10;0.792
2024-05-05 01:20;0.36
2024-05-05 01:30;-0.036
2024-05-05 01:40;-0.396
2024-05-05 01:50;-0.792
2024-05-05 02:00;-1.188
2024-05-05 02:10;-1.548
2024-05-05 02:20;-1.908
2024-05-05 02:30;-2.16
2024-05-05 02:40;-2.34
2024-05-05 02:50;-2.484
2024-05-05 03:00;-2.52
2024-05-05 03:10;-2.52
2024-05-05 03:20;-2.484
2024-05-05 03:30;-2.376
2024-05-05 03:40;-2.232
2024-05-05 03:50;-2.052
2024-05-05 04:00;-1.872
2024-05-05 04:10;-1.62
2024-05-05 04:20;-1.368
2024-05-05 04:30;-1.08
2024-05-05 04:40;-0.792
2024-05-05 04:50;-0.432
2024-05-05 05:00;-0.072
2024-05-05 05:10;0.252
2024-05-05 05:20;0.54
2024-05-05 05:30;0.792
2024-05-05 05:40;1.044
2024-05-05 05:50;1.296
2024-05-05 06:00;1.584
2024-05-05 06:10;1.872
2024-05-05 06:20;2.124
2024-05-05 06:30;2.376
2024-05-05 06:40;2.592
2024-05-05 06:50;2.772
2024-05-05 07:00;2.916
2024-05-05 07:10;3.06
2024-05-05 07:20;3.132
2024-05-05 07:30;3.24
2024-05-05 07:40;3.312
2024-05-05 07:50;3.348
2024-05-05 08:00;3.384
2024-05-05 08:10;3.42
2024-05-05 08:20;3.456
2024-05-05 08:30;3.456
2024-05-05 08:40;3.42
2024-05-05 08:50;3.384
2024-05-05 09:00;3.348
2024-05-05 09:10;3.312
2024-05-05 09:20;3.276
2024-05-05 09:30;3.24
2024-05-05 09:40;3.204
2024-05-05 09:50;3.204
2024-05-05 10:00;3.204
2024-05-05 10:10;3.204
2024-05-05 10:20;3.204
2024-05-05 10:30;3.168
2024-05-05 10:40;3.168
2024-05-05 10:50;3.132
2024-05-05 11:00;3.132
2024-05-05 11:10;3.096
2024-05-05 11:20;3.06
2024-05-05 11:30;2.988
2024-05-05 11:40;2.952
2024-05-05 11:50;2.88
2024-05-05 12:00;2.808
2024-05-05 12:10;2.7
2024-05-05 12:20;2.592
2024-05-05 12:30;2.376
2024-05-05 12:40;2.124
2024-05-05 12:50;1.764
2024-05-05 13:00;1.332
2024-05-05 13:10;0.828
2024-05-05 13:20;0.396
2024-05-05 13:30;-0.072
2024-05-05 13:40;-0.54
2024-05-05 13:50;-1.044
2024-05-05 14:00;-1.548
2024-05-05 14:10;-2.052
2024-05-05 14:20;-2.52
2024-05-05 14:30;-2.88
2024-05-05 14:40;-3.168
2024-05-05 14:50;-3.312
2024-05-05 15:00;-3.42
2024-05-05 15:10;-3.42
2024-05-05 15:20;-3.42
2024-05-05 15:30;-3.348
2024-05-05 15:40;-3.276
2024-05-05 15:50;-3.204
2024-05-05 16:00;-3.132
2024-05-05 16:10;-3.06
2024-05-05 16:20;-2.952
2024-05-05 16:30;-2.844
2024-05-05 16:40;-2.7
2024-05-05 16:50;-2.556
2024-05-05 17:00;-2.412
2024-05-05 17:10;-2.196
2024-05-05 17:20;-1.944
2024-05-05 17:30;-1.656
2024-05-05 17:40;-1.332
2024-05-05 17:50;-0.936
2024-05-05 18:00;-0.504
2024-05-05 18:10;-0.144
2024-05-05 18:20;0.216
2024-05-05 18:30;0.54
2024-05-05 18:40;0.828
2024-05-05 18:50;1.116
2024-05-05 19:00;1.368
2024-05-05 19:10;1.656
2024-05-05 19:20;1.944
2024-05-05 19:30;2.232
2024-05-05 19:40;2.448
2024-05-05 19:50;2.628
2024-05-05 20:00;2.808
2024-05-05 20:10;2.916
2024-05-05 20:20;3.024
2024-05-05 20:30;3.096
2024-05-05 20:40;3.132
2024-05-05 20:50;3.168
2024-05-05 21:00;3.204
2024-05-05 21:10;3.204
2024-05-05 21:20;3.204
2024-05-05 21:30;3.204
2024-05-05 21:40;3.168
2024-05-05 21:50;3.168
2024-05-05 22:00;3.168
2024-05-05 22:10;3.168
2024-05-05 22:20;3.132
2024-05-05 22:30;3.132
2024-05-05 22:40;3.132
2024-05-05 22:50;3.096
2024-05-05 23:00;3.096
2024-05-05 23:10;3.096
2024-05-05 23:20;3.06
2024-05-05 23:30;3.06
2024-05-05 23:40;3.06
2024-05-05 23:50;3.024
2024-05-06 00:00;3.024
2024-05-06 00:10;2.988
2024-05-06 00:20;2.952
2024-05-06 00:30;2.916
2024-05-06 00:40;2.844
2024-05-06 00:50;2.808
2024-05-06 01:00;2.7
2024-05-06 01:10;2.592
2024-05-06 01:20;2.484
2024-05-06 01:30;2.304
2024-05-06 01:40;2.052
2024-05-06 01:50;1.728
2024-05-06 02:00;1.332
2024-05-06 02:10;0.828
2024-05-06 02:20;0.36
2024-05-06 02:30;-0.072
2024-05-06 02:40;-0.504
2024-05-06 02:50;-0.936
2024-05-06 03:00;-1.368
2024-05-06 03:10;-1.764
2024-05-06 03:20;-2.088
2024-05-06 03:30;-2.376
2024-05-06 03:40;-2.556
2024-05-06 03:50;-2.664
2024-05-06 04:00;-2.7
2024-05-06 04:10;-2.664
2024-05-06 04:20;-2.592
2024-05-06 04:30;-2.484
2024-05-06 04:40;-2.34
2024-05-06 04:50;-2.124
2024-05-06 05:00;-1.908
2024-05-06 05:10;-1.62
2024-05-06 05:20;-1.332
2024-05-06 05:30;-0.972
2024-05-06 05:40;-0.612
2024-05-06 05:50;-0.216
2024-05-06 06:00;0.144
2024-05-06 06:10;0.504
2024-05-06 06:20;0.792
2024-05-06 06:30;1.044
2024-05-06 06:40;1.296
2024-05-06 06:50;1.584
2024-05-06 07:00;1.872
2024-05-06 07:10;2.16
2024-05-06 07:20;2.448
2024-05-06 07:30;2.7
2024-05-06 07:40;2.916
2024-05-06 07:50;3.06
2024-05-06 08:00;3.204
2024-05-06 08:10;3.348
2024-05-06 08:20;3.42
2024-05-06 08:30;3.492
2024-05-06 08:40;3.564
2024-05-06 08:50;3.6
2024-05-06 09:00;3.636
2024-05-06 09:10;3.636
2024-05-06 09:20;3.636
2024-05-06 09:30;3.6
2024-05-06 09:40;3.6
2024-05-06 09:50;3.528
2024-05-06 10:00;3.492
2024-05-06 10:10;3.456
2024-05-06 10:20;3.42
2024-05-06 10:30;3.42
2024-05-06 10:40;3.384
2024-05-06 10:50;3.384
2024-05-06 11:00;3.348
2024-05-06 11:10;3.348
2024-05-06 11:20;3.312
2024-05-06 11:30;3.276
2024-05-06 11:40;3.24
2024-05-06 11:50;3.24
2024-05-06 12:00;3.204
2024-05-06 12:10;3.168
2024-05-06 12:20;3.132
2024-05-06 12:30;3.06
2024-05-06 12:40;3.024
2024-05-06 12:50;2.952
2024-05-06 13:00;2.88
2024-05-06 13:10;2.772
2024-05-06 13:20;2.628
2024-05-06 13:30;2.376
2024-05-06 13:40;2.052
2024-05-06 13:50;1.656
2024-05-06 14:00;1.152
2024-05-06 14:10;0.612
2024-05-06 14:20;0.108
2024-05-06 14:30;-0.396
2024-05-06 14:40;-0.936
2024-05-06 14:50;-1.476
2024-05-06 15:00;-2.016
2024-05-06 15:10;-2.52
2024-05-06 15:20;-2.952
2024-05-06 15:30;-3.276
2024-05-06 15:40;-3.456
2024-05-06 15:50;-3.564
2024-05-06 16:00;-3.6
2024-05-06 16:10;-3.564
2024-05-06 16:20;-3.528
2024-05-06 16:30;-3.456
2024-05-06 16:40;-3.384
2024-05-06 16:50;-3.348
2024-05-06 17:00;-3.276
2024-05-06 17:10;-3.204
2024-05-06 17:20;-3.096
2024-05-06 17:30;-2.988
2024-05-06 17:40;-2.808
2024-05-06 17:50;-2.628
2024-05-06 18:00;-2.412
2024-05-06 18:10;-2.124
2024-05-06 18:20;-1.836
2024-05-06 18:30;-1.44
2024-05-06 18:40;-1.044
2024-05-06 18:50;-0.648
2024-05-06 19:00;-0.216
2024-05-06 19:10;0.144
2024-05-06 19:20;0.468
2024-05-06 19:30;0.72
2024-05-06 19:40;1.008
2024-05-06 19:50;1.26
2024-05-06 20:00;1.548
2024-05-06 20:10;1.8
2024-05-06 20:20;2.088
2024-05-06 20:30;2.34
2024-05-06 20:40;2.556
2024-05-06 20:50;2.7
2024-05-06 21:00;2.844
2024-05-06 21:10;2.916
2024-05-06 21:20;2.988
2024-05-06 21:30;2.988
2024-05-06 21:40;3.024
2024-05-06 21:50;3.024
2024-05-06 22:00;3.024
2024-05-06 22:10;2.988
2024-05-06 22:20;2.988
2024-05-06 22:30;2.952
2024-05-06 22:40;2.952
2024-05-06 22:50;2.952
2024-05-06 23:00;2.916
2024-05-06 23:10;2.916
2024-05-06 23:20;2.88
2024-05-06 23:30;2.88
2024-05-06 23:40;2.88
2024-05-06 23:50;2.844
2024-05-07 00:00;2.844
2024-05-07 00:10;2.844
2024-05-07 00:20;2.844
2024-05-07 00:30;2.808
2024-05-07 00:40;2.808
2024-05-07 00:50;2.808
2024-05-07 01:00;2.772
2024-05-07 01:10;2.736
2024-05-07 01:20;2.7
2024-05-07 01:30;2.628
2024-05-07 01:40;2.556
2024-05-07 01:50;2.448
2024-05-07 02:00;2.34
2024-05-07 02:10;2.232
2024-05-07 02:20;2.052
2024-05-07 02:30;1.8
2024-05-07 02:40;1.476
2024-05-07 02:50;1.044
2024-05-07 03:00;0.54
2024-05-07 03:10;0
2024-05-07 03:20;-0.468
2024-05-07 03:30;-0.972
2024-05-07 03:40;-1.404
2024-05-07 03:50;-1.872
2024-05-07 04:00;-2.268
2024-05-07 04:10;-2.592
2024-05-07 04:20;-2.808
2024-05-07 04:30;-2.952
2024-05-07 04:40;-2.988
2024-05-07 04:50;-2.988
2024-05-07 05:00;-2.952
2024-05-07 05:10;-2.88
2024-05-07 05:20;-2.772
2024-05-07 05:30;-2.628
2024-05-07 05:40;-2.484
2024-05-07 05:50;-2.268
2024-05-07 06:00;-2.016
2024-05-07 06:10;-1.728
2024-05-07 06:20;-1.368
2024-05-07 06:30;-0.972
2024-05-07 06:40;-0.504
2024-05-07 06:50;-0.072
2024-05-07 07:00;0.288
2024-05-07 07:10;0.648
2024-05-07 07:20;0.936
2024-05-07 07:30;1.188
2024-05-07 07:40;1.476
2024-05-07 07:50;1.764
2024-05-07 08:00;2.088
2024-05-07 08:10;2.376
2024-05-07 08:20;2.664
2024-05-07 08:30;2.88
2024-05-07 08:40;3.096
2024-05-07 08:50;3.24
2024-05-07 09:00;3.384
2024-05-07 09:10;3.492
2024-05-07 09:20;3.564
2024-05-07 09:30;3.636
2024-05-07 09:40;3.672
2024-05-07 09:50;3.672
2024-05-07 10:00;3.672
2024-05-07 10:10;3.636
2024-05-07 10:20;3.636
2024-05-07 10:30;3.6
2024-05-07 10:40;3.564
2024-05-07 10:50;3.528
2024-05-07 11:00;3.492
2024-05-07 11:10;3.456
2024-05-07 11:20;3.456
2024-05-07 11:30;3.42
2024-05-07 11:40;3.42
2024-05-07 11:50;3.384
2024-05-07 12:00;3.384
2024-05-07 12:10;3.348
2024-05-07 12:20;3.348
2024-05-07 12:30;3.312
2024-05-07 12:40;3.312
2024-05-07 12:50;3.276
2024-05-07 13:00;3.24
2024-05-07 13:10;3.24
2024-05-07 13:20;3.204
2024-05-07 13:30;3.168
2024-05-07 13:40;3.096
2024-05-07 13:50;3.024
2024-05-07 14:00;2.916
2024-05-07 14:10;2.772
2024-05-07 14:20;2.592
2024-05-07 14:30;2.34
2024-05-07 14:40;1.98
2024-05-07 14:50;1.548
2024-05-07 15:00;1.008
2024-05-07 15:10;0.468
2024-05-07 15:20;-0.036
2024-05-07 15:30;-0.576
2024-05-07 15:40;-1.08
2024-05-07 15:50;-1.62
2024-05-07 16:00;-2.16
2024-05-07 16:10;-2.664
2024-05-07 16:20;-3.024
2024-05-07 16:30;-3.276
2024-05-07 16:40;-3.42
2024-05-07 16:50;-3.492
2024-05-07 17:00;-3.456
2024-05-07 17:10;-3.384
2024-05-07 17:20;-3.312
2024-05-07 17:30;-3.204
2024-05-07 17:40;-3.168
2024-05-07 17:50;-3.096
2024-05-07 18:00;-3.024
2024-05-07 18:10;-2.952
2024-05-07 18:20;-2.808
2024-05-07 18:30;-2.628
2024-05-07 18:40;-2.412
2024-05-07 18:50;-2.124
2024-05-07 19:00;-1.8
2024-05-07 19:10;-1.44
2024-05-07 19:20;-1.008
2024-05-07 19:30;-0.576
2024-05-07 19:40;-0.18
2024-05-07 19:50;0.18
2024-05-07 20:00;0.468
2024-05-07 20:10;0.756
2024-05-07 20:20;1.008
2024-05-07 20:30;1.296
2024-05-07 20:40;1.584
2024-05-07 20:50;1.872
2024-05-07 21:00;2.16
2024-05-07 21:10;2.448
2024-05-07 21:20;2.664
2024-05-07 21:30;2.844
2024-05-07 21:40;2.952
2024-05-07 21:50;3.024
2024-05-07 22:00;3.096
2024-05-07 22:10;3.096
2024-05-07 22:20;3.096
2024-05-07 22:30;3.06
2024-05-07 22:40;3.024
2024-05-07 22:50;2.988
2024-05-07 23:00;2.988
2024-05-07 23:10;2.988
2024-05-07 23:20;2.988
2024-05-07 23:30;2.988
2024-05-07 23:40;2.952
2024-05-07 23:50;2.952
2024-05-08 00:00;2.952
2024-05-08 00:10;2.916
2024-05-08 00:20;2.88
2024-05-08 00:30;2.88
2024-05-08 00:40;2.844
2024-05-08 00:50;2.844
2024-05-08 01:00;2.844
2024-05-08 01:10;2.844
2024-05-08 01:20;2.844
2024-05-08 01:30;2.808
2024-05-08 01:40;2.808
2024-05-08 01:50;2.772
2024-05-08 02:00;2.736
2024-05-08 02:10;2.664
2024-05-08 02:20;2.556
2024-05-08 02:30;2.448
2024-05-08 02:40;2.34
2024-05-08 02:50;2.16
2024-05-08 03:00;1.98
2024-05-08 03:10;1.728
2024-05-08 03:20;1.404
2024-05-08 03:30;0.972
2024-05-08 03:40;0.468
2024-05-08 03:50;-0.036
2024-05-08 04:00;-0.54
2024-05-08 04:10;-1.044
2024-05-08 04:20;-1.548
2024-05-08 04:30;-2.016
2024-05-08 04:40;-2.448
2024-05-08 04:50;-2.808
2024-05-08 05:00;-3.024
2024-05-08 05:10;-3.168
2024-05-08 05:20;-3.204
2024-05-08 05:30;-3.204
2024-05-08 05:40;-3.132
2024-05-08 05:50;-3.06
2024-05-08 06:00;-2.952
2024-05-08 06:10;-2.844
2024-05-08 06:20;-2.736
2024-05-08 06:30;-2.592
2024-05-08 06:40;-2.412
2024-05-08 06:50;-2.16
2024-05-08 07:00;-1.908
2024-05-08 07:10;-1.584
2024-05-08 07:20;-1.188
2024-05-08 07:30;-0.72
2024-05-08 07:40;-0.252
2024-05-08 07:50;0.18
2024-05-08 08:00;0.54
2024-05-08 08:10;0.864
2024-05-08 08:20;1.116
2024-05-08 08:30;1.404
2024-05-08 08:40;1.692
2024-05-08 08:50;2.052
2024-05-08 09:00;2.376
2024-05-08 09:10;2.664
2024-05-08 09:20;2.88
2024-05-08 09:30;3.096
2024-05-08 09:40;3.276
2024-05-08 09:50;3.384
2024-05-08 10:00;3.528
2024-05-08 10:10;3.6
2024-05-08 10:20;3.636